This is the latest recevied weather packets stored in our database for station/object CRYC. If no packets are shown the sender has not sent any weather packets the latest 1 day(s).
| Time | Temp. | Humidity | Pressure | Rain* | Wind** | Luminosity | Snow |
|---|---|---|---|---|---|---|---|
| 1778017835 | 27.22° C | - | - | 0 mm | 0.45 m/s, 177° | - | - |
| 1778017231 | 27.78° C | - | - | 0 mm | 4.47 m/s, 240° | - | - |
| 1778016625 | 28.33° C | - | - | 0 mm | 4.92 m/s, 205° | - | - |
| 1778016020 | 28.89° C | - | - | 0 mm | 5.36 m/s, 252° | - | - |
| 1778015416 | 28.89° C | - | - | 0 mm | 3.58 m/s, 257° | - | - |
| 1778014812 | 28.89° C | - | - | 0 mm | 4.92 m/s, 191° | - | - |
| 1778014209 | 28.89° C | - | - | 0 mm | 6.71 m/s, 224° | - | - |
| 1778012998 | 28.33° C | - | - | 0 mm | 4.02 m/s, 24° | - | - |
| 1778012393 | 28.33° C | - | - | 0 mm | 8.94 m/s, 249° | - | - |
| 1778011788 | 28.33° C | - | - | 0 mm | 4.92 m/s, 236° | - | - |
| 1778011183 | 29.44° C | - | - | 0 mm | 2.24 m/s, 252° | - | - |
| 1778010579 | 29.44° C | - | - | 0 mm | 6.26 m/s, 255° | - | - |
| 1778009974 | 28.89° C | - | - | 0 mm | 5.36 m/s, 235° | - | - |
| 1778009372 | 29.44° C | - | - | 0 mm | 3.58 m/s, 249° | - | - |
| 1778008766 | 28.89° C | - | - | 0 mm | 4.47 m/s, 267° | - | - |
| 1778008161 | 28.89° C | - | - | 0 mm | 3.58 m/s, 250° | - | - |
| 1778007558 | 28.33° C | - | - | 0 mm | 8.49 m/s, 262° | - | - |
| 1778006953 | 28.89° C | - | - | 0 mm | 5.81 m/s, 264° | - | - |
| 1778006349 | 28.89° C | - | - | 0 mm | 1.34 m/s, 239° | - | - |
| 1778005752 | 28.89° C | - | - | 0 mm | 2.68 m/s, 226° | - | - |
| 1778005139 | 28.89° C | - | - | 0 mm | 1.79 m/s, 266° | - | - |
| 1778004535 | 28.89° C | - | - | 0 mm | 1.34 m/s, 224° | - | - |
| 1778003322 | 28.89° C | - | - | 0 mm | 1.34 m/s, 191° | - | - |
| 1778002724 | 28.33° C | - | - | 0 mm | 1.79 m/s, 263° | - | - |
| 1778002115 | 28.33° C | - | - | 0 mm | 6.26 m/s, 228° | - | - |
* Rain latest hour (hover to see other rain measurements)
** Current wind speed in m/s (hover to see current wind gust speed)